Weather reports worldwide

Advertisment
Gottfrieding, Germany (10872): temperature & dewpoint: 10.08.2018 13:00:00 - 16.08.2018 13:00:00 (CEST)Gottfrieding, Germany (10872): temperature 5cm & temperature -5cm: 10.08.2018 13:00:00 - 16.08.2018 13:00:00 (CEST)Gottfrieding, Germany (10872): temperature -20cm & temperature -100cm: 10.08.2018 13:00:00 - 16.08.2018 13:00:00 (CEST)Gottfrieding, Germany (10872): wind speed & gusts: 10.08.2018 13:00:00 - 16.08.2018 13:00:00 (CEST)Gottfrieding, Germany (10872): wind direction: 10.08.2018 13:00:00 - 16.08.2018 13:00:00 (CEST)Gottfrieding, Germany (10872): reduced air pressure: 10.08.2018 13:00:00 - 16.08.2018 13:00:00 (CEST)Gottfrieding, Germany (10872): visibility: 10.08.2018 13:00:00 - 16.08.2018 13:00:00 (CEST)Gottfrieding, Germany (10872): sunshine duration: 10.08.2018 13:00:00 - 16.08.2018 13:00:00 (CEST)Gottfrieding, Germany (10872): precipitation: 10.08.2018 13:00:00 - 16.08.2018 13:00:00 (CEST)
Date & Time tt [°C] td [°C] tt 5cm [°C] tt -5cm [°C] tt -20cm [°C] tt -100cm [°C] ff [km/h] ff [kn] fx [km/h] fx [kn] dd ppp [hPa] vv [km] sd [min] rr [mm]
16.08.2018 13:00:00 25,6 12,9 29,2 29,8 22,1 20,8 13 7 23 13 E 1016,6 43 54 0,0
16.08.2018 12:00:00 25,1 13,3 29,2 27,7 21,9 20,8 12 6 20 11 ENE 1017,1 23 60 0,0
16.08.2018 11:00:00 23,5 13,9 26,2 25,3 21,7 20,8 8 4 16 8 ENE 1018,0 38 60 0,0
16.08.2018 10:00:00 22,2 14,4 24,7 22,6 21,7 20,8 5 3 8 5 ENE 1018,3 34 60 0,0
16.08.2018 09:00:00 18,8 14,6 20,4 20,1 21,9 20,8 5 3 7 4 NE 1018,9 17 60 0,0
16.08.2018 08:00:00 16,3 13,9 16,2 18,5 22,1 20,8 3 2 4 2 E 1019,4 8 60 0,0
16.08.2018 07:00:00 12,2 11,6 11,2 18,0 22,3 20,8 2 1 4 2 N 1020,0 4,6 10 0,0
16.08.2018 06:00:00 11,9 11,7 10,7 18,4 22,6 20,8 1 1 4 2 SSE 1020,0 0,8 0 0,0
16.08.2018 05:00:00 12,3 11,8 10,7 18,9 22,8 20,8 2 1 4 2 N 1019,9 5 0 0,0
16.08.2018 04:00:00 12,7 11,9 11,5 19,5 23,0 20,8 2 1 4 2 S 1020,1 10 0 0,0
16.08.2018 03:00:00 13,5 12,9 12,6 20,0 23,3 20,8 0 0 8 5 N 1020,1 9 0 0,0
16.08.2018 02:00:00 13,6 12,5 12,5 20,6 23,5 20,8 4 2 5 3 WNW 1020,4 13 0 0,0
16.08.2018 01:00:00 14,9 13,5 13,2 21,4 23,7 20,8 4 2 6 4 E 1020,3 14 0 0,0
16.08.2018 00:00:00 16,3 14,5 15,7 22,1 23,9 20,8 4 2 6 4 SSE 1020,1 25 0 0,0
15.08.2018 23:00:00 16,1 13,9 14,5 22,8 24,0 20,8 3 2 6 4 WSW 1019,9 26 0 0,0
15.08.2018 22:00:00 17,6 15,3 15,8 23,9 24,1 20,9 3 1 8 4 W 1019,5 35 0 0,0
15.08.2018 21:00:00 18,9 14,8 17,1 25,1 24,1 20,9 3 2 9 5 E 1018,8 36 3 0,0
15.08.2018 20:00:00 22,2 15,5 21,3 26,8 23,9 20,9 2 1 8 4 NNW 1018,0 25 37 0,0
15.08.2018 19:00:00 25,3 12,2 25,5 28,4 23,7 20,9 3 2 11 6 NNE 1017,7 57 50 0,0
15.08.2018 18:00:00 26,0 12,5 28,4 29,4 23,4 20,9 5 3 15 8 WSW 1017,9 48 60 0,0
15.08.2018 17:00:00 24,7 13,6 28,2 29,1 23,1 20,9 9 5 16 8 NE 1018,3 46 24 0,0
15.08.2018 16:00:00 24,8 13,1 29,2 29,1 22,8 20,9 8 4 17 9 NE 1018,4 35 37 0,0
15.08.2018 15:00:00 23,7 12,8 26,9 28,0 22,5 20,9 5 3 14 7 W 1019,0 30 16 0,0
15.08.2018 14:00:00 23,3 12,9 26,7 27,4 22,2 20,9 9 5 20 11 W 1019,2 22 21 0,0
15.08.2018 13:00:00 23,1 12,3 30,3 26,8 21,9 20,9 8 4 16 9 W 1019,4 22 29 0,0
15.08.2018 12:00:00 23,0 13,5 28,2 26,0 21,7 20,9 7 4 13 7 SSW 1019,7 24 59 0,0
15.08.2018 11:00:00 20,9 14,0 25,0 22,2 21,7 20,9 6 3 11 6 W 1020,3 20 16 0,0
15.08.2018 10:00:00 19,3 13,9 20,4 21,0 21,7 20,9 7 4 11 6 W 1020,2 24 1 0,0
15.08.2018 09:00:00 18,6 13,6 20,1 20,0 21,8 20,9 9 5 16 9 W 1020,0 27 0 0,0
15.08.2018 08:00:00 17,8 13,7 18,4 19,2 22,0 20,9 10 5 13 7 W 1019,7 23 43 0,0
15.08.2018 07:00:00 15,4 13,4 14,9 18,5 22,2 20,9 7 4 10 5 W 1019,6 20 8 0,0
15.08.2018 06:00:00 14,7 13,4 14,2 18,6 22,4 20,9 4 2 8 4 SW 1019,4 20 0 0,0
15.08.2018 05:00:00 14,8 12,6 12,4 18,8 22,7 20,9 6 4 11 6 WSW 1019,4 23 0 0,0
15.08.2018 04:00:00 15,6 12,8 13,7 19,4 22,9 20,9 9 5 13 7 WSW 1019,0 22 0 0,0
15.08.2018 03:00:00 16,3 13,3 14,2 20,1 23,0 20,9 8 4 12 7 W 1018,7 27 0 0,0
15.08.2018 02:00:00 17,5 13,4 15,1 20,8 23,2 21,0 7 4 8 5 W 1018,2 37 0 0,0
15.08.2018 01:00:00 19,0 13,1 17,3 21,3 23,4 21,0 7 4 11 6 WSW 1017,7 63 0 0,0
15.08.2018 00:00:00 18,8 13,3 17,8 21,7 23,5 21,0 8 4 16 9 W 1017,6 45 0 0,0
14.08.2018 23:00:00 20,1 12,3 19,0 22,3 23,7 21,0 13 7 19 10 WNW 1017,2 52 0 0,0
14.08.2018 22:00:00 20,1 12,7 19,0 22,9 23,8 21,0 8 4 17 9 WNW 1017,0 59 0 0,0
14.08.2018 21:00:00 20,4 12,3 19,2 23,8 23,8 21,0 7 4 20 11 WNW 1016,2 64 0 0,0
14.08.2018 20:00:00 21,9 11,2 21,1 25,0 23,7 21,0 13 7 22 12 NW 1015,1 68 4 0,0
14.08.2018 19:00:00 23,5 10,5 23,7 26,7 23,6 21,0 19 10 30 16 WNW 1014,2 49 59 0,0
14.08.2018 18:00:00 24,4 11,2 27,0 27,2 23,4 21,0 21 11 31 17 NW 1013,8 35 44 0,0
14.08.2018 17:00:00 24,4 11,3 26,4 27,3 23,2 21,0 21 11 33 18 WNW 1013,7 26 44 0,0
14.08.2018 16:00:00 24,0 10,7 25,2 27,4 23,0 21,0 24 13 39 21 WNW 1013,6 47 44 0,0
14.08.2018 15:00:00 24,5 12,5 27,7 26,1 22,8 21,0 23 12 36 20 W 1013,7 16 40 0,0
14.08.2018 14:00:00 23,8 12,6 27,7 25,1 22,7 21,0 22 12 48 26 W 1013,9 48 37 0,0
14.08.2018 13:00:00 22,5 12,4 27,0 24,9 22,5 21,0 19 11 32 17 W 1014,2 40 38 0,0
14.08.2018 12:00:00 21,0 13,7 23,0 24,3 22,4 21,0 18 10 29 16 WNW 1014,2 28 37 0,0
14.08.2018 11:00:00 21,0 14,3 24,8 23,2 22,4 21,0 18 10 28 15 W 1014,4 20 53 0,0
14.08.2018 10:00:00 19,8 14,7 21,6 21,9 22,5 21,0 19 11 29 16 W 1014,4 29 48 0,0
14.08.2018 09:00:00 19,0 16,1 19,6 20,7 22,6 21,0 15 8 20 11 W 1013,9 19 30 0,0
14.08.2018 08:00:00 17,5 16,6 17,5 19,8 22,8 21,0 7 4 11 6 WSW 1013,7 10 3 0,0
14.08.2018 07:00:00 16,5 16,0 16,0 19,4 23,0 21,0 9 5 15 8 W 1013,2 7 0 0,0
14.08.2018 06:00:00 16,2 16,0 15,2 19,8 23,2 21,0 6 3 9 5 W 1012,7 3,0 0 0,0
14.08.2018 05:00:00 15,2 15,0 14,9 20,0 23,5 21,0 3 2 4 2 WSW 1012,5 0,5 0 0,0
14.08.2018 04:00:00 15,6 15,4 15,3 20,5 23,7 21,0 0 0 4 2 N 1012,4 1,6 0 0,0
14.08.2018 03:00:00 16,1 15,9 15,6 21,0 23,9 21,1 5 3 5 3 SSE 1012,2 1,6 0 0,0
14.08.2018 02:00:00 17,1 16,7 16,7 21,6 24,1 21,1 3 2 5 3 NE 1012,1 4,3 0 0,0
14.08.2018 01:00:00 17,4 17,0 17,2 22,0 24,4 21,1 4 2 5 3 NNE 1012,2 6 0 0,0
14.08.2018 00:00:00 17,5 17,0 17,3 22,4 24,6 21,1 3 2 5 3 ENE 1012,1 8 0 0,0
13.08.2018 23:00:00 17,6 16,9 17,4 22,8 24,8 21,1 3 2 16 8 SE 1012,0 13 0 0,0
13.08.2018 22:00:00 17,7 17,0 17,4 23,6 25,0 21,1 9 5 15 8 ESE 1011,6 11 0 0,8
13.08.2018 21:00:00 17,8 17,3 17,8 24,7 25,2 21,1 8 5 18 10 ENE 1011,0 7 0 3,8
13.08.2018 20:00:00 18,0 16,9 17,6 26,6 25,2 21,1 19 10 55 30 W 1011,2 3,8 0 1,9
13.08.2018 19:00:00 23,0 13,3 22,8 28,5 25,0 21,1 37 20 61 33 W 1009,2 36 0 0,0
13.08.2018 18:00:00 27,0 11,5 27,1 30,5 24,7 21,1 29 16 42 23 NW 1007,3 45 12 0,0
13.08.2018 17:00:00 30,5 13,0 32,8 32,3 24,4 21,2 20 11 29 16 NW 1005,9 34 51 0,0
13.08.2018 16:00:00 30,9 10,6 34,3 32,8 23,9 21,2 18 10 35 19 NW 1006,4 25 52 0,0
13.08.2018 15:00:00 31,2 11,4 34,6 33,1 23,4 21,2 15 8 27 15 W 1007,0 26 56 0,0
13.08.2018 14:00:00 31,6 8,9 37,7 32,2 22,9 21,2 16 8 35 19 SW 1007,4 27 60 0,0
13.08.2018 13:00:00 29,5 14,6 35,7 30,9 22,5 21,2 14 8 24 13 WNW 1008,1 21 60 0,0
13.08.2018 12:00:00 29,0 15,5 35,2 28,6 22,2 21,2 6 3 16 8 NE 1008,7 30 60 0,0
13.08.2018 11:00:00 26,5 16,0 31,2 25,9 22,0 21,2 9 5 16 9 ENE 1009,3 32 60 0,0
13.08.2018 10:00:00 24,1 16,0 27,8 23,1 22,0 21,2 7 4 12 7 ENE 1009,9 20 60 0,0
13.08.2018 09:00:00 20,1 14,8 22,5 20,7 22,2 21,2 8 4 11 6 NE 1010,8 19 60 0,0
13.08.2018 08:00:00 17,0 13,4 17,7 18,9 22,4 21,2 6 3 9 5 ENE 1011,5 19 60 0,0
13.08.2018 07:00:00 13,4 11,7 11,6 18,3 22,6 21,3 0 0 5 3 N 1012,0 12 36 0,0
13.08.2018 06:00:00 11,6 11,0 10,1 18,7 22,8 21,3 0 0 5 3 N 1012,2 17 0 0,0
13.08.2018 05:00:00 12,3 11,5 11,2 19,2 23,1 21,3 3 2 5 3 NNE 1012,2 16 0 0,0
13.08.2018 04:00:00 12,4 11,3 11,3 19,8 23,3 21,3 3 1 5 3 SW 1012,6 19 0 0,0
13.08.2018 03:00:00 13,8 12,3 12,0 20,3 23,6 21,3 4 2 6 3 W 1012,5 33 0 0,0
13.08.2018 02:00:00 13,5 11,8 12,4 20,9 23,8 21,3 4 2 6 3 W 1013,0 29 0 0,0
13.08.2018 01:00:00 14,6 13,4 12,9 21,7 24,0 21,3 3 1 4 2 NW 1013,0 27 0 0,0
13.08.2018 00:00:00 15,3 13,8 13,4 22,5 24,2 21,4 3 2 4 2 S 1013,1 29 0 0,0
12.08.2018 23:00:00 15,7 12,7 14,2 23,5 24,3 21,4 3 2 4 2 WSW 1013,4 44 0 0,0
12.08.2018 22:00:00 17,3 13,9 15,2 24,7 24,4 21,4 3 2 5 3 NNE 1013,2 42 0 0,0
12.08.2018 21:00:00 21,6 13,2 17,0 26,2 24,3 21,4 4 2 7 4 ENE 1012,6 70 15 0,0
12.08.2018 20:00:00 24,4 13,2 23,4 28,0 24,1 21,4 5 3 16 9 NE 1011,9 70 60 0,0
12.08.2018 19:00:00 27,0 11,1 28,8 29,6 23,8 21,4 11 6 17 9 ENE 1012,0 70 60 0,0
12.08.2018 18:00:00 27,6 11,2 31,6 30,9 23,4 21,5 10 5 18 10 NE 1012,7 70 60 0,0
12.08.2018 17:00:00 27,8 10,5 32,7 31,4 22,9 21,5 13 7 21 11 NE 1013,1 54 60 0,0
12.08.2018 16:00:00 27,5 9,6 32,2 31,8 22,4 21,5 14 8 24 13 NE 1013,9 36 60 0,0
12.08.2018 15:00:00 27,0 9,6 31,8 30,8 21,9 21,5 11 6 23 12 ENE 1014,8 33 60 0,0
12.08.2018 14:00:00 26,3 9,1 31,4 29,4 21,4 21,5 9 5 25 14 ESE 1015,7 28 60 0,0
12.08.2018 13:00:00 25,3 8,2 29,7 27,4 21,1 21,5 11 6 26 14 E 1016,6 31 60 0,0
12.08.2018 12:00:00 24,9 7,7 28,6 25,2 20,8 21,5 16 9 30 16 E 1017,1 58 60 0,0
12.08.2018 11:00:00 23,4 9,8 26,5 23,0 20,7 21,6 12 7 23 12 E 1017,8 39 59 0,0
12.08.2018 10:00:00 19,3 12,5 22,5 20,4 20,7 21,6 10 5 14 8 NE 1018,9 28 60 0,0
12.08.2018 09:00:00 16,0 11,6 18,7 18,0 20,9 21,6 7 4 9 5 NE 1019,9 32 60 0,0
12.08.2018 08:00:00 13,9 10,4 12,8 16,0 21,1 21,6 3 1 5 3 NNE 1020,5 20 60 0,0
12.08.2018 07:00:00 9,5 9,0 8,1 15,1 21,4 21,6 5 3 6 4 S 1021,5 14 21 0,0
12.08.2018 06:00:00 8,3 7,9 6,7 15,5 21,6 21,6 4 2 7 4 N 1021,7 10 0 0,0
12.08.2018 05:00:00 8,0 7,4 7,0 16,0 21,9 21,6 2 1 3 2 E 1022,1 13 0 0,0
12.08.2018 04:00:00 8,8 8,1 7,7 16,5 22,2 21,6 3 1 5 3 S 1022,6 16 0 0,0
12.08.2018 03:00:00 9,7 8,9 8,3 17,1 22,4 21,7 3 2 5 3 WSW 1022,8 23 0 0,0
12.08.2018 02:00:00 10,7 9,5 8,8 17,8 22,7 21,7 4 2 6 3 E 1022,8 26 0 0,0
12.08.2018 01:00:00 11,3 10,0 9,7 18,6 22,9 21,7 3 2 8 4 SW 1023,0 33 0 0,0
12.08.2018 00:00:00 12,0 10,2 10,4 19,3 23,1 21,7 3 2 5 3 SW 1023,0 24 0 0,0
11.08.2018 23:00:00 12,9 10,3 11,0 20,2 23,3 21,7 4 2 6 3 W 1022,9 33 0 0,0
11.08.2018 22:00:00 14,4 11,2 11,9 21,3 23,4 21,7 3 1 6 4 WNW 1022,5 49 0 0,0
11.08.2018 21:00:00 17,1 9,9 13,4 22,7 23,4 21,7 3 2 16 9 W 1021,8 33 12 0,0
11.08.2018 20:00:00 22,2 6,9 20,4 24,4 23,3 21,8 12 6 25 13 W 1020,8 70 60 0,0
11.08.2018 19:00:00 23,8 6,3 24,6 25,9 23,2 21,8 14 8 32 17 WNW 1020,5 39 60 0,0
11.08.2018 18:00:00 24,3 6,6 26,9 26,6 22,9 21,8 17 9 35 19 WNW 1020,5 29 59 0,0
11.08.2018 17:00:00 24,8 8,2 27,9 26,5 22,7 21,8 21 11 41 22 WNW 1020,6 27 60 0,0
11.08.2018 16:00:00 24,5 9,4 27,8 25,8 22,5 21,8 23 12 35 19 W 1021,0 19 50 0,0
11.08.2018 15:00:00 24,0 10,6 28,1 25,0 22,3 21,8 21 11 35 19 W 1021,8 24 41 0,0
11.08.2018 14:00:00 22,4 10,8 24,4 24,9 22,1 21,8 15 8 27 14 W 1022,4 43 19 0,0
11.08.2018 13:00:00 21,8 12,4 26,1 24,7 21,8 21,8 16 8 23 12 WNW 1022,7 26 40 0,0
11.08.2018 12:00:00 20,5 14,1 23,4 24,3 21,6 21,8 14 8 27 14 W 1023,2 23 51 0,0
11.08.2018 11:00:00 19,7 14,2 22,9 22,9 21,5 21,8 3 1 13 7 WNW 1023,3 20 60 0,0
11.08.2018 10:00:00 16,6 13,8 19,4 20,3 21,5 21,8 6 4 12 6 NE 1023,6 12 53 0,0
11.08.2018 09:00:00 13,0 12,2 15,2 18,3 21,6 21,8 4 2 10 6 ENE 1024,4 3,6 13 0,0
11.08.2018 08:00:00 12,2 12,0 12,9 16,9 21,8 21,8 0 0 4 2 N 1024,4 0,1 0 0,1
11.08.2018 07:00:00 10,4 10,2 10,5 16,3 22,0 21,8 0 0 3 2 N 1024,7 0,2 0 0,0
11.08.2018 06:00:00 10,2 9,9 9,7 16,4 22,3 21,8 3 2 4 2 NNW 1024,4 0,2 0 0,0
11.08.2018 05:00:00 10,8 10,7 10,9 16,6 22,5 21,8 2 1 4 2 SSW 1024,3 0,1 0 0,0
11.08.2018 04:00:00 10,2 10,2 9,7 16,7 22,8 21,8 3 2 6 4 N 1024,6 0,2 0 0,0
11.08.2018 03:00:00 10,7 10,5 9,7 17,0 23,1 21,8 5 3 8 4 E 1025,0 0,1 0 0,0
11.08.2018 02:00:00 10,8 10,3 9,4 17,5 23,3 21,8 4 2 7 4 NNE 1025,3 0,2 0 0,0
11.08.2018 01:00:00 11,8 11,5 10,8 18,1 23,6 21,8 6 3 7 4 E 1025,6 5 0 0,0
11.08.2018 00:00:00 11,9 11,5 11,0 18,8 23,8 21,8 2 1 7 4 ESE 1025,5 8 0 0,0
10.08.2018 23:00:00 13,0 12,3 12,1 19,6 24,0 21,8 5 3 5 3 ENE 1025,6 12 0 0,0
10.08.2018 22:00:00 15,1 13,4 14,2 20,3 24,2 21,8 2 1 8 4 W 1025,4 28 0 0,0
10.08.2018 21:00:00 15,8 13,1 15,6 21,0 24,3 21,8 7 4 15 8 S 1025,2 36 2 0,0
10.08.2018 20:00:00 16,3 13,2 16,3 21,8 24,4 21,8 8 5 16 8 S 1025,0 51 0 0,0
10.08.2018 19:00:00 17,0 12,9 17,4 22,5 24,5 21,8 9 5 16 8 S 1025,1 47 0 0,0
10.08.2018 18:00:00 17,1 12,7 18,1 22,9 24,6 21,8 11 6 17 9 S 1025,1 53 0 0,0
10.08.2018 17:00:00 16,8 12,3 18,4 22,4 24,7 21,8 9 5 13 7 WSW 1025,4 49 0 0,0
10.08.2018 16:00:00 15,9 12,6 15,8 22,0 24,9 21,8 11 6 18 10 SW 1025,8 50 0 0,3
10.08.2018 15:00:00 15,9 12,3 16,8 22,2 25,1 21,8 14 8 19 11 SSW 1025,9 53 0 0,1
10.08.2018 14:00:00 15,9 14,4 16,8 21,6 25,3 21,8 13 7 18 10 WSW 1025,8 8 0 2,1
10.08.2018 13:00:00 15,6 13,9 16,0 21,7 25,5 21,7 10 5 23 13 W 1025,6 8 0 1,9

tt = temperature
td = dewpoint
tt 5cm = temperature 5cm
tt -5cm = temperature -5cm
tt -20cm = temperature -20cm
tt -100cm = temperature -100cm
ff = wind speed
fx = gusts
dd = wind direction
ppp = reduced air pressure
vv = visibility
sd = sunshine duration
rr = precipitation

Next stations